GFSSE_700_rhum_120.txt.gz
RH
49 50 50 32 17 22 29 36 15 12 14 16 37 53 55 57 52 65 82 78 68 56 16 7 7 7 10 16 16 16 17 17 19 35 59 60 63 63 51 29 17 15 14
55 52 50 34 15 19 26 27 14 12 14 12 22 36 48 41 57 68 81 75 63 61 9 6 8 12 16 16 19 22 22 21 27 48 51 52 40 22 17 15 14 13 13
55 55 53 35 15 17 29 20 13 11 10 10 10 16 28 42 58 62 72 62 76 64 6 8 13 18 17 20 25 27 23 21 25 28 25 22 18 16 16 15 14 14 15
55 56 53 37 18 17 27 18 13 12 10 10 10 10 21 41 49 53 58 60 81 44 6 12 18 17 19 21 20 21 21 20 19 19 17 17 18 17 16 16 16 17 17
62 57 55 36 23 20 20 19 15 12 11 11 11 11 10 33 47 44 52 82 80 22 9 19 18 19 22 21 19 21 19 17 16 16 17 19 18 18 18 18 19 19 19
69 57 56 38 26 22 20 20 16 13 12 12 13 13 12 13 42 37 66 88 76 8 16 19 20 21 21 19 18 17 16 15 16 18 20 20 19 19 20 20 21 22 23
64 68 55 42 31 25 24 23 17 13 13 13 14 15 14 14 45 53 72 87 47 10 20 20 21 22 19 16 16 16 16 18 19 21 22 21 22 21 21 24 26 27 26
59 66 59 42 42 30 28 27 18 14 14 14 16 16 15 28 57 62 73 85 11 19 21 22 22 19 16 16 17 18 20 20 21 22 24 23 24 27 28 28 27 26 27
67 71 70 53 52 42 36 28 19 15 15 16 18 16 15 34 69 41 70 51 12 22 23 24 21 16 17 18 19 20 20 21 23 25 28 29 27 28 28 27 26 26 26
84 81 77 78 64 50 41 33 19 16 17 19 18 16 16 41 38 28 47 10 22 24 25 23 17 18 19 20 21 24 24 26 28 28 28 29 28 25 25 24 24 25 26
95 78 76 95 80 61 43 33 21 19 20 20 18 17 18 21 26 36 14 16 23 26 25 19 18 18 21 23 26 28 27 27 31 31 26 23 22 20 21 24 26 27 20
89 76 87 76 82 67 45 33 23 22 22 21 20 18 14 14 20 17 11 23 26 28 22 20 20 21 26 28 27 29 31 30 26 23 21 18 21 24 26 26 21 17 20
92 94 82 92 98 76 41 30 24 23 22 21 20 17 15 13 18 11 20 25 28 26 20 21 22 25 28 30 32 29 24 23 23 22 21 22 22 22 24 25 28 35 44
100 99 96 75 74 88 39 31 24 23 21 22 21 18 15 12 14 14 22 25 26 21 22 22 25 27 32 33 26 24 23 24 26 26 27 27 27 29 33 37 42 49 55
85 100 98 82 74 86 41 35 26 24 23 24 22 20 16 13 14 20 23 27 25 20 22 24 28 32 30 28 26 24 24 25 26 28 30 32 33 35 38 40 46 51 55
91 94 96 80 67 76 47 36 28 24 25 24 23 21 19 17 19 21 24 28 22 22 25 27 30 28 31 41 47 48 47 44 38 32 29 28 30 32 37 41 45 50 54
85 97 98 84 55 70 64 38 31 26 25 24 23 22 21 21 21 24 30 25 23 24 26 28 26 42 52 55 56 55 55 54 54 54 52 49 44 37 34 35 39 42 48
94 97 98 88 90 84 67 40 35 28 26 24 23 22 22 22 24 30 29 24 25 24 25 28 48 54 56 55 54 54 53 53 52 53 54 54 54 53 50 44 40 40 46
95 90 92 96 98 70 70 46 40 31 27 25 23 22 22 24 28 30 26 25 25 24 27 46 55 55 55 54 53 52 51 51 50 50 50 51 52 53 54 54 51 45 45
83 93 98 99 84 80 84 64 46 34 28 25 24 23 23 27 29 31 26 26 25 26 44 54 55 54 54 53 52 51 50 50 49 49 49 48 48 49 51 53 55 54 48
75 97 100 99 72 82 83 75 44 38 28 26 25 24 26 28 28 27 27 26 25 38 51 54 54 53 52 52 51 51 50 48 47 46 46 46 48 61 62 57 56 56 55
83 78 91 99 99 87 79 69 51 46 30 28 27 25 29 31 31 28 25 26 29 44 51 53 52 52 51 51 52 50 51 66 71 73 68 69 82 85 85 93 85 61 58
80 79 98 93 97 97 91 90 67 52 40 31 28 27 30 33 32 31 28 28 33 44 48 50 50 50 50 51 53 58 66 65 74 78 92 90 87 87 84 100 92 64 64
68 68 87 99 97 99 96 91 63 48 47 34 31 28 29 33 35 35 33 30 33 40 44 47 48 49 50 53 56 69 74 74 83 86 80 85 84 79 96 99 100 81 70
78 79 87 91 99 86 98 85 79 77 64 54 38 33 31 33 35 34 36 34 35 39 43 45 47 48 52 55 57 74 84 82 80 90 82 99 84 89 99 95 96 96 93
83 80 69 91 97 100 96 93 89 82 81 78 68 41 35 33 36 36 37 39 42 42 43 45 52 57 62 59 68 84 91 85 85 90 89 90 96 79 79 98 98 94 98

GFSSE_700_rhum_126.txt.gz
RH
54 50 51 44 47 52 37 25 18 17 11 12 28 16 28 37 59 62 65 74 66 46 15 7 7 7 11 14 15 16 17 37 58 66 60 60 62 45 25 15 10 10 10
64 61 52 52 44 53 39 23 18 19 11 11 46 46 47 45 57 63 78 74 56 37 8 6 7 10 14 15 17 18 20 44 62 67 63 56 37 19 14 10 10 11 11
61 60 55 56 53 54 44 22 21 19 12 12 54 51 53 53 56 74 81 68 57 21 6 7 10 14 15 17 19 20 20 29 55 48 45 27 15 13 12 12 12 13 15
81 57 52 55 58 57 50 24 26 18 13 14 42 45 48 44 56 74 79 62 66 25 7 10 15 16 17 22 23 22 23 35 42 34 20 14 14 13 14 14 16 17 19
78 61 48 47 61 60 53 26 29 20 12 15 32 33 44 42 57 66 71 57 71 16 9 15 16 17 18 18 19 19 18 18 16 14 14 15 14 14 16 17 19 21 21
69 74 54 49 60 62 54 29 31 22 14 13 16 26 34 46 58 63 60 56 75 14 14 18 18 19 18 17 19 18 16 15 14 15 16 16 16 16 18 21 22 22 22
61 69 62 60 66 72 62 43 41 22 16 15 12 21 24 44 57 62 52 67 79 16 14 19 19 19 18 17 17 16 14 14 15 18 18 18 18 20 22 23 23 22 21
57 72 70 70 71 74 70 48 41 24 20 22 21 27 29 47 55 61 49 81 76 12 17 19 20 20 17 16 15 14 15 16 16 18 19 20 22 23 23 22 21 21 19
58 72 88 83 74 77 73 59 47 26 26 36 38 44 31 53 54 63 51 89 75 12 20 20 21 19 16 16 16 18 19 20 16 18 21 25 24 23 21 21 21 20 13
60 64 76 90 86 77 77 64 59 33 38 42 51 48 43 46 56 60 70 85 73 12 27 21 20 16 16 18 19 20 19 20 19 23 22 24 22 20 20 21 21 11 14
64 67 56 93 95 88 77 66 68 46 48 56 50 29 43 50 63 62 76 88 71 17 31 22 19 16 18 20 21 22 20 21 23 23 23 20 19 20 23 21 12 20 35
60 64 70 74 99 99 90 76 71 56 49 39 29 18 49 54 72 67 87 82 59 20 29 23 18 18 19 21 22 26 26 22 24 20 18 17 21 23 18 17 28 41 44
47 53 64 74 95 94 98 81 75 59 45 52 22 44 41 65 73 74 83 78 30 23 26 22 17 19 20 24 26 26 26 23 20 18 17 19 20 23 28 33 36 42 42
50 60 66 80 89 100 99 99 80 66 54 65 42 63 60 71 62 87 75 78 15 24 27 21 19 21 24 26 28 26 24 19 20 21 23 23 27 30 33 36 37 38 39
44 64 64 90 86 95 99 100 94 75 55 47 53 62 70 56 58 81 68 72 16 26 26 20 21 23 27 27 30 23 22 23 25 27 28 31 31 32 33 34 34 34 37
49 51 69 80 75 92 92 100 99 83 66 29 40 54 71 60 68 83 60 47 20 27 25 21 22 25 28 30 26 24 24 25 26 30 29 29 32 35 38 40 41 42 42
39 44 68 83 78 79 100 100 92 98 76 30 62 48 74 70 69 62 46 23 23 29 25 23 27 28 29 27 25 26 25 28 36 44 49 52 52 52 52 51 51 50 50
41 44 62 72 80 90 92 100 100 99 86 39 59 65 82 72 67 38 36 15 25 30 24 23 26 28 29 25 27 42 50 54 55 54 54 54 53 52 52 53 53 54 55
48 39 34 50 70 69 99 100 90 100 98 52 44 72 82 88 77 38 36 16 24 30 23 23 26 28 25 36 49 55 56 54 53 52 52 50 50 50 49 49 49 50 53
62 53 42 66 66 75 94 100 100 99 99 59 70 86 59 87 90 24 47 18 26 30 23 23 26 29 34 51 56 56 54 53 52 52 50 49 48 47 47 48 55 80 79
62 62 69 69 64 68 100 99 100 100 97 67 44 67 97 56 53 17 38 21 29 32 22 23 27 29 50 56 56 55 54 54 53 52 49 60 70 72 79 75 67 79 80
60 68 62 65 61 57 98 96 99 99 96 69 42 64 28 33 22 19 37 24 28 31 25 26 27 34 55 56 56 55 54 54 54 51 68 76 75 80 87 87 92 91 89
61 73 82 64 58 55 99 98 100 88 100 78 52 33 27 22 19 17 27 26 27 30 25 25 28 44 56 57 56 55 54 53 54 58 67 69 74 81 89 86 84 91 85
72 91 70 72 58 76 96 100 100 96 97 76 49 31 25 21 18 17 20 24 26 28 25 27 29 48 56 57 55 54 53 54 54 58 66 79 80 82 85 81 81 82 78
87 96 68 80 58 70 96 100 100 100 98 85 59 35 24 21 20 20 21 24 30 28 26 27 30 48 55 56 54 54 52 52 54 64 83 87 86 87 89 70 66 66 74
100 100 100 82 62 65 99 99 100 98 98 89 74 36 24 23 22 22 23 28 33 29 28 30 35 46 53 54 54 53 52 51 53 59 66 73 81 86 71 54 61 76 82

GFSSE_700_rhum_129.txt.gz
RH
66 63 56 47 46 46 53 39 30 22 15 11 13 14 22 41 47 61 64 72 67 44 16 8 7 7 11 13 15 22 45 62 78 72 68 68 52 34 20 9 9 10 10
53 65 64 58 50 46 49 46 29 24 16 11 16 16 24 38 58 57 64 72 61 37 10 7 7 10 13 14 16 18 34 57 65 60 59 57 31 17 10 10 11 12 13
53 67 65 59 49 51 52 50 29 27 20 12 28 35 42 41 54 62 76 71 52 25 7 7 10 14 15 16 16 17 20 52 63 57 43 23 14 11 11 12 13 15 17
66 60 66 60 54 58 59 55 31 30 24 13 36 46 54 52 52 68 79 68 51 28 7 11 15 16 18 18 20 19 20 52 50 40 23 13 12 12 13 15 17 18 18
67 63 70 63 54 50 62 60 35 35 30 15 32 50 52 54 50 70 76 61 59 34 7 13 17 19 21 22 20 17 22 40 33 19 14 13 14 14 16 19 19 19 18
57 63 77 74 67 52 56 64 40 37 38 18 24 48 45 40 54 72 70 56 63 25 8 15 18 21 20 18 17 16 14 14 13 13 14 14 16 17 20 20 18 18 19
57 57 65 80 74 63 64 66 48 45 41 23 41 47 36 44 62 67 63 54 72 30 10 16 18 20 19 18 16 15 13 13 13 14 14 15 17 20 21 19 18 19 15
58 57 58 71 82 70 74 73 62 47 46 22 41 41 35 37 62 70 60 55 78 36 14 18 19 19 18 18 16 14 14 16 15 15 15 18 20 22 20 19 18 15 10
57 59 57 66 83 78 82 81 75 56 52 25 33 34 35 35 61 66 61 57 80 31 16 20 20 20 16 16 14 14 17 17 17 17 18 19 22 20 19 18 16 10 12
53 57 59 58 75 90 82 91 80 72 60 38 31 30 33 39 60 58 62 61 84 38 19 22 22 19 16 15 15 16 17 19 18 21 21 22 18 18 18 19 11 21 34
23 50 60 57 69 98 90 87 88 84 71 44 44 46 54 43 65 61 65 64 83 44 25 23 23 17 16 16 17 16 18 20 21 21 22 18 17 20 21 12 25 37 38
12 19 63 62 62 93 99 91 98 85 87 51 45 61 68 51 51 57 59 78 84 41 26 25 22 18 19 19 18 17 22 23 21 20 18 19 23 19 17 30 36 38 38
11 8 22 65 65 67 96 98 96 98 94 63 51 56 62 51 51 62 57 77 78 47 26 26 20 19 21 20 20 19 24 24 20 17 18 21 22 26 31 35 38 35 38
7 5 6 43 69 71 84 99 98 97 99 81 57 55 53 56 56 69 59 82 73 47 25 26 20 21 22 23 23 23 25 21 18 18 21 24 28 32 35 35 34 34 36
10 8 7 8 53 66 70 91 97 99 99 94 60 49 32 62 62 73 65 78 72 43 22 25 20 22 22 24 24 23 22 20 20 24 26 30 32 32 32 32 35 39 42
11 9 8 8 15 53 62 74 95 99 100 97 62 53 32 75 81 68 80 77 66 35 24 25 20 22 24 26 24 24 23 24 26 28 30 28 31 37 43 47 48 50 50
14 9 8 9 12 33 65 72 98 98 98 94 67 60 31 64 92 73 83 84 62 27 26 25 21 24 28 27 29 23 23 28 28 29 37 46 51 53 54 54 54 54 54
12 8 13 23 18 21 53 83 96 98 100 99 88 65 49 56 87 74 82 87 66 22 26 24 21 23 27 29 25 24 25 29 43 53 55 55 54 52 51 50 50 50 49
9 10 25 39 31 30 50 72 69 98 100 99 97 66 52 63 80 83 83 91 60 21 26 25 22 26 26 28 26 26 44 54 56 55 53 52 51 50 49 47 49 50 56
10 12 19 36 36 39 55 62 76 90 94 99 99 82 55 64 78 84 99 83 54 21 29 26 24 25 29 28 29 48 56 56 54 53 52 50 49 51 59 66 73 73 69
14 14 17 44 41 55 49 55 70 82 98 100 93 81 62 68 83 86 97 64 51 20 29 27 23 26 30 27 44 56 57 55 54 53 51 50 57 63 65 77 80 81 82
18 17 34 56 72 60 53 46 56 82 95 94 100 86 67 72 80 74 93 42 42 19 32 29 24 26 32 27 51 58 56 54 54 54 52 56 62 66 74 83 83 81 70
31 34 63 69 72 67 65 62 68 81 90 98 99 79 60 70 83 69 89 40 34 20 30 29 24 26 28 31 57 57 56 54 54 54 54 60 68 79 83 82 79 78 68
54 92 68 73 97 80 63 60 65 88 100 100 97 74 68 76 80 98 95 27 27 22 29 31 26 27 30 44 57 57 56 56 55 55 57 60 67 78 75 76 78 68 55
100 81 80 90 97 82 63 67 84 93 100 100 97 68 60 69 93 70 96 74 22 22 30 32 28 31 33 47 57 57 56 55 54 53 53 55 57 66 72 77 71 54 51
100 98 99 99 94 97 99 95 82 98 97 100 100 75 70 60 70 44 79 24 19 21 30 34 30 33 35 45 56 56 55 55 53 52 52 54 60 68 79 79 65 50 61

GFSSE_700_rhum_135.txt.gz
RH
70 66 60 54 49 49 54 54 47 40 30 22 22 16 26 34 48 54 62 66 66 46 23 11 7 9 12 29 53 54 57 70 67 75 68 53 39 22 9 9 11 13 13
64 57 56 56 54 49 56 57 51 43 34 24 20 17 25 36 47 46 62 68 67 42 23 9 7 9 13 19 37 52 67 76 69 66 61 47 23 10 10 13 15 14 14
68 64 66 65 60 57 54 60 56 47 38 26 20 20 22 39 48 55 59 71 67 38 16 8 8 10 18 15 20 31 60 67 58 55 45 28 12 10 12 16 16 15 14
64 65 66 67 62 58 54 60 61 53 43 31 22 24 23 36 52 60 62 74 64 33 9 7 10 12 13 15 18 28 57 65 58 48 30 12 10 12 16 17 16 15 13
67 73 67 62 69 71 70 65 64 59 49 38 26 26 31 39 52 62 66 78 66 38 8 8 16 14 14 17 20 25 56 59 42 28 15 12 13 16 18 16 16 14 10
67 70 62 67 72 75 76 72 68 64 56 46 32 28 42 50 55 60 71 79 65 45 12 9 13 15 16 18 20 25 45 44 30 17 13 13 16 18 18 16 16 10 8
63 62 65 71 67 70 83 83 74 70 65 53 42 36 55 59 63 57 69 78 61 46 14 11 15 16 15 17 18 20 24 21 14 14 15 16 19 20 16 16 11 8 10
65 58 60 63 72 75 79 83 88 77 70 62 52 42 54 60 61 56 75 76 58 49 22 12 16 16 16 17 17 16 15 14 16 15 16 20 21 18 17 12 9 15 24
62 60 58 55 58 69 79 83 87 87 83 78 60 48 45 55 57 59 75 72 59 59 39 11 16 16 16 17 15 14 14 16 17 17 20 22 20 18 16 10 21 29 30
59 63 59 56 57 58 66 81 80 85 85 86 73 56 42 48 57 62 79 75 63 67 48 15 16 17 17 17 14 14 17 16 18 19 22 23 19 19 13 20 31 31 30
45 54 60 61 58 58 59 62 83 86 98 91 87 77 50 46 54 57 69 75 67 67 48 17 16 17 17 15 14 15 17 18 19 22 22 19 19 19 19 31 30 29 28
36 39 43 46 60 57 59 59 66 87 90 100 91 87 75 40 45 44 66 75 72 67 64 23 17 17 16 15 16 16 18 20 22 23 20 19 22 15 30 32 30 27 28
30 28 32 34 30 46 53 56 57 64 92 98 99 92 85 54 39 35 44 75 74 68 68 38 18 18 16 15 17 18 19 22 23 22 18 23 17 27 31 31 28 27 28
27 23 18 12 19 15 29 43 52 55 71 95 100 99 89 81 62 44 33 53 84 68 70 51 23 22 16 15 19 18 19 22 23 18 20 20 24 31 32 28 28 29 39
23 21 18 13 8 7 16 24 40 51 58 93 98 99 98 89 86 48 46 40 76 74 74 60 26 25 18 16 19 19 23 24 21 18 20 23 28 31 29 27 36 48 51
24 20 16 10 7 4 6 12 21 33 51 62 99 96 98 93 86 83 60 48 70 77 82 70 29 27 20 18 19 22 24 24 19 19 23 26 30 27 30 44 51 53 52
14 10 10 6 5 4 4 5 5 7 21 49 72 93 100 98 93 91 81 56 71 78 83 79 37 29 22 17 20 24 24 22 20 23 26 29 27 35 49 53 53 50 49
8 7 6 7 6 5 5 5 5 4 7 32 60 76 98 94 99 92 76 72 64 80 82 87 51 26 23 18 21 24 24 23 23 28 29 27 40 51 54 52 49 51 59
10 9 9 7 6 6 6 5 4 5 4 12 51 63 97 94 98 93 86 83 65 80 80 92 62 26 25 19 23 27 26 24 27 30 30 42 53 54 52 50 54 59 63
17 13 10 9 8 6 7 7 5 5 5 4 13 49 63 90 98 98 95 93 67 84 88 95 76 31 27 23 26 29 29 29 29 31 43 54 55 52 50 57 60 59 70
24 18 12 9 8 8 8 8 7 5 5 4 4 11 45 85 100 98 97 89 69 81 85 92 84 34 28 25 31 33 30 29 30 37 53 55 53 51 55 58 57 64 71
31 28 21 16 14 12 10 8 8 6 5 4 4 6 13 58 99 98 95 88 71 88 88 100 88 48 29 27 26 31 30 29 34 46 54 54 52 53 56 56 61 72 68
38 34 30 25 19 16 12 11 10 8 13 14 6 8 14 33 75 96 96 87 77 98 94 94 91 61 28 26 25 30 29 24 36 51 55 54 53 55 54 56 70 70 61
29 34 35 30 24 22 17 14 11 10 12 18 14 12 24 32 66 98 98 95 88 98 100 90 92 72 29 29 26 27 33 29 41 49 54 53 53 53 54 57 63 57 62
16 29 31 26 22 22 14 12 12 12 19 28 29 31 24 31 49 100 97 96 87 96 100 94 90 82 29 31 26 27 29 30 47 54 54 54 54 54 57 56 57 55 54
17 29 27 24 22 20 19 21 19 19 33 44 38 41 50 34 58 95 100 99 90 89 100 95 82 85 30 31 28 30 35 30 38 53 54 54 55 57 56 56 56 56 57